Location: Unspecified
(0.0000°N, 0.0000°E)
Time: 22:36:39
(UTC+00:00)

Envisat - Pass Details

Date: 16 July 2019
Orbit: 764 x 766 km, 98.1° (Epoch: 22 July)

Event Time Altitude Azimuth Distance (km) Brightness Sun altitude
Rises 20:00:43 0° 208° (SSW) 3,230 6.3 -26.5°
Reaches altitude 10° 20:05:36 10° 251° (WSW) 2,299 6.0 -27.6°
Maximum altitude 20:06:11 10° 257° (WSW) 2,286 6.1 -27.8°
Drops below altitude 10° 20:06:45 10° 264° (W) 2,298 6.2 -27.9°
Sets 20:11:39 0° 306° (NW) 3,219 7.4 -29.0°
